Location: Antioch
(38.0049°N, 121.8058°W)
Time: 06:14:09
(UTC+00:00)

NOAA 12 - Pass Details

Date: 11 February 2026
Orbit: 793 x 812 km, 98.6° (Epoch: 5 March)

Event Time Altitude Azimuth Distance (km) Brightness Sun altitude
Rises 13:07:16 0° 14° (NNE) 3,316 7.5 -23.0°
Reaches altitude 10° 13:09:36 10° 15° (NNE) 2,384 6.7 -22.6°
Maximum altitude 13:14:53 82° 103° (ESE) 817 4.1 -21.5°
Drops below altitude 10° 13:20:10 10° 191° (SSW) 2,381 6.4 -20.5°
Sets 13:22:30 0° 192° (SSW) 3,310 7.2 -20.0°
